1496790000.53,39049,17.31,73460.5,4.29,3.59,3.59,0,*75
1496790001.73,39050,17.31,73466.3,4.27,3.59,3.67,0,*7E
1496790002.91,39051,17.31,73466.0,4.29,3.59,3.63,0,*75
1496790004.13,39052,17.31,73478.3,4.31,3.63,3.67,0,*72
1496790005.4,39053,17.31,73472.5,4.31,3.67,3.75,0,*74
1496790006.66,39054,17.31,73468.3,4.31,3.75,3.67,0,*73
1496790007.89,39055,17.31,73468.5,4.33,3.67,3.67,0,*73
1496790009.09,39056,17.31,73460.0,4.31,3.63,3.63,0,*72
1496790010.32,39057,17.31,73458.8,4.31,3.59,3.67,0,*7E
1496790011.55,39058,17.31,73452.5,4.31,3.63,3.67,0,*78
1496790012.75,39059,17.31,73456.3,4.33,3.63,3.67,0,*7B
1496790014.01,39060,17.31,73452.5,4.31,3.67,3.75,0,*74
1496790015.28,39061,17.31,73440.3,4.31,3.75,3.75,0,*76
1496790016.51,39062,17.31,73448.0,4.29,3.71,3.71,0,*7C
1496790017.77,39063,17.31,73436.3,4.31,3.67,3.67,0,*74
1496790018.97,39064,17.31,73430.5,4.31,3.63,3.63,0,*73
1496790020.17,39065,17.31,73426.0,4.31,3.63,3.63,0,*72
1496790021.38,39066,17.31,73412.5,4.31,3.63,3.63,0,*71
1496790022.6,39067,17.31,73422.5,4.31,3.53,3.59,0,*7A
1496790023.8,39068,17.31,73424.8,4.31,3.59,3.59,0,*7F
1496790025.03,39069,17.25,73422.5,4.33,3.41,3.53,0,*7F
1496790026.29,39070,17.31,73414.3,4.31,3.49,3.49,0,*76
1496790027.49,39071,17.31,73408.5,4.31,3.59,3.59,0,*77
1496790028.72,39072,17.31,73404.3,4.31,3.63,3.67,0,*70
1496790029.95,39073,17.31,73402.8,4.31,3.63,3.67,0,*71
1496790031.17,39074,17.31,73394.3,4.33,3.53,3.53,0,*70
1496790032.37,39075,17.31,73382.5,4.31,3.59,3.59,0,*73
1496790033.6,39076,17.31,73392.0,4.31,3.63,3.67,0,*74
1496790034.8,39077,17.31,73396.8,4.31,3.63,3.63,0,*71
1496790036.06,39078,17.31,73404.8,4.31,3.67,3.67,0,*7E
1496790037.26,39079,17.31,73420.8,4.31,3.63,3.63,0,*7F
1496790038.53,39080,17.31,73422.0,4.31,3.75,3.75,0,*79
1496790039.79,39081,17.31,73426.0,4.31,3.75,3.75,0,*78
1496790041.05,39082,17.31,73434.0,4.31,3.75,3.75,0,*7B
1496790042.32,39083,17.31,73434.8,4.31,3.75,3.75,0,*7A
1496790043.58,39084,17.31,73434.3,4.31,3.75,3.75,0,*7D
1496790044.84,39085,17.31,73434.3,4.31,3.67,3.67,0,*7C
1496790046.05,39086,17.31,73442.0,4.33,3.67,3.63,0,*79
1496790047.25,39087,17.31,73446.3,4.31,3.63,3.63,0,*7E
1496790048.48,39088,17.31,73444.0,4.31,3.63,3.67,0,*75
1496790049.71,39089,17.31,73420.8,4.31,3.67,3.63,0,*74
1496790050.95,39090,17.31,73418.0,4.31,3.67,3.63,0,*7C
1496790052.15,39091,17.31,73416.8,4.31,3.63,3.63,0,*79
1496790053.38,39092,17.31,73410.5,4.31,3.67,3.63,0,*7E
1496790054.58,39093,17.25,73398.8,4.31,3.63,3.63,0,*7B
1496790055.79,39094,17.31,73410.0,4.31,3.63,3.63,0,*7C
1496790056.99,39095,17.31,73406.8,4.31,3.63,3.63,0,*7D
1496790058.25,39096,17.31,73408.8,4.31,3.67,3.67,0,*7E
1496790059.45,39097,17.31,73412.8,4.33,3.63,3.67,0,*79
1496790060.65,39098,17.31,73412.0,4.31,3.63,3.63,0,*70
1496790061.83,39099,17.31,73416.0,4.33,3.63,3.63,0,*73
1496790063.03,39100,17.31,73426.5,4.31,3.63,3.63,0,*70
1496790064.29,39101,17.31,73418.5,4.31,3.67,3.67,0,*71
1496790065.46,39102,17.25,73408.5,4.33,3.63,3.63,0,*70
1496790066.67,39103,17.31,73408.5,4.31,3.63,3.63,0,*73
1496790067.9,39104,17.31,73412.8,4.31,3.67,3.63,0,*70
1496790069.08,39105,17.25,73416.8,4.33,3.63,3.63,0,*77
1496790070.28,39106,17.31,73418.3,4.31,3.63,3.63,0,*76
1496790071.48,39107,17.31,73418.0,4.31,3.63,3.63,0,*77
1496790072.68,39108,17.31,73422.5,4.31,3.63,3.63,0,*78
1496790073.93,39109,17.31,73420.5,4.31,3.53,3.53,0,*79
1496790075.18,39110,17.31,73424.3,4.31,3.53,3.53,0,*71
1496790076.38,39111,17.31,73426.0,4.33,3.59,3.53,0,*78
1496790077.6,39112,17.25,73420.5,4.31,3.53,3.59,0,*79
1496790078.83,39113,17.25,73444.0,4.31,3.59,3.53,0,*78
1496790080.06,39114,17.31,73442.5,4.33,3.53,3.49,0,*7C
1496790081.3,39115,17.31,73444.5,4.31,3.53,3.53,0,*74
1496790082.48,39116,17.31,73446.3,4.29,3.55,3.55,0,*7E
1496790083.68,39117,17.31,73448.8,4.31,3.59,3.63,0,*7F
1496790084.88,39118,17.31,73432.0,4.31,3.59,3.63,0,*70
1496790086.08,39119,17.25,73428.3,4.31,3.59,3.63,0,*71
1496790087.26,39120,17.31,73432.5,4.33,3.59,3.59,0,*70
1496790088.46,39121,17.31,73436.0,4.31,3.59,3.59,0,*73
1496790089.66,39122,17.31,73428.8,4.31,3.59,3.59,0,*70
1496790090.89,39123,17.25,73418.8,4.31,3.53,3.59,0,*7B
1496790092.09,39124,17.25,73390.0,4.31,3.59,3.59,0,*76
1496790093.32,39125,17.31,73392.0,4.31,3.59,3.67,0,*7A
1496790094.52,39126,17.31,73400.0,4.31,3.63,3.63,0,*74
1496790095.77,39127,17.31,73412.8,4.31,3.53,3.53,0,*75
1496790096.97,39128,17.31,73412.3,4.31,3.59,3.59,0,*7A
1496790098.18,39129,17.31,73416.5,4.31,3.59,3.59,0,*7B
1496790099.41,39130,17.31,73426.0,4.31,3.67,3.63,0,*77
1496790100.61,39131,17.25,73426.3,4.31,3.63,3.63,0,*72
1496790101.84,39132,17.31,73422.0,4.31,3.63,3.67,0,*75
1496790103.04,39133,17.31,73404.8,4.31,3.63,3.63,0,*70
1496790104.24,39134,17.31,73406.3,4.33,3.63,3.67,0,*71
1496790105.42,39135,17.31,73426.5,4.33,3.63,3.63,0,*74
1496790106.6,39136,17.25,73420.8,4.33,3.63,3.63,0,*77
1496790107.8,39137,17.25,73420.0,4.31,3.63,3.63,0,*74
1496790109.0,39138,17.25,73426.8,4.31,3.63,3.63,0,*7B
1496790110.2,39139,17.31,73418.3,4.31,3.63,3.63,0,*7A
1496790111.43,39140,17.25,73422.8,4.31,3.63,3.67,0,*70
1496790112.63,39141,17.25,73424.8,4.31,3.63,3.63,0,*75
1496790113.86,39142,17.31,73426.5,4.31,3.63,3.67,0,*72
1496790115.06,39143,17.25,73426.3,4.31,3.63,3.63,0,*77
1496790116.26,39144,17.25,73424.8,4.31,3.63,3.63,0,*70
1496790117.5,39145,17.25,73416.3,4.33,3.67,3.67,0,*73
1496790118.73,39146,17.31,73440.3,4.31,3.63,3.67,0,*76
1496790119.9,39147,17.31,73440.5,4.33,3.63,3.63,0,*71
1496790121.13,39148,17.25,73422.8,4.33,3.53,3.49,0,*75
1496790122.39,39149,17.25,73392.0,4.31,3.41,3.41,0,*7D
1496790123.6,39150,17.31,73380.8,4.31,3.29,3.29,0,*75
1496790124.79,39151,17.25,73374.0,4.33,3.29,3.29,0,*76
1496790125.99,39152,17.25,73402.8,4.31,3.29,3.29,0,*77
1496790127.25,39153,17.31,73414.5,4.31,3.37,3.37,0,*76
1496790128.5,39154,17.31,73422.8,4.31,3.53,3.53,0,*71
1496790129.72,39155,17.25,73434.0,4.31,3.59,3.53,0,*7A
1496790130.93,39156,17.25,73446.5,4.31,3.59,3.59,0,*73
1496790132.13,39157,17.25,73454.5,4.31,3.59,3.59,0,*72
1496790133.33,39158,17.25,73466.0,4.31,3.59,3.63,0,*74
1496790134.53,39159,17.25,73470.5,4.33,3.63,3.67,0,*7A
1496790135.76,39160,17.25,73458.3,4.31,3.63,3.67,0,*72
1496790137.02,39161,17.25,73454.5,4.31,3.75,3.67,0,*74
1496790138.28,39162,17.25,73448.3,4.31,3.79,3.79,0,*74
1496790139.54,39163,17.31,73454.8,4.31,3.79,3.79,0,*75
1496790140.77,39164,17.25,73442.3,4.33,3.67,3.67,0,*70
1496790142.0,39165,17.25,73436.0,4.31,3.67,3.63,0,*77
1496790143.26,39166,17.31,73436.0,4.31,3.67,3.67,0,*70
1496790144.47,39167,17.25,73434.3,4.31,3.63,3.63,0,*71
1496790145.64,39168,17.25,73440.5,4.33,3.63,3.63,0,*7C
1496790146.87,39169,17.25,73438.5,4.33,3.67,3.67,0,*7D
1496790148.11,39170,17.25,73432.3,4.33,3.75,3.75,0,*75
1496790149.29,39171,17.31,73432.3,4.33,3.63,3.63,0,*74
1496790150.52,39172,17.31,73440.0,4.33,3.67,3.67,0,*77
1496790151.76,39173,17.25,73422.8,4.33,3.67,3.75,0,*75
1496790153.01,39174,17.25,73424.0,4.31,3.79,3.79,0,*73
1496790154.28,39175,17.25,73428.8,4.31,3.67,3.79,0,*7D
1496790155.51,39176,17.25,73438.8,4.33,3.79,3.75,0,*7F
1496790156.75,39177,17.31,73436.5,4.33,3.67,3.75,0,*71
1496790157.92,39178,17.25,73444.0,4.33,3.63,3.63,0,*7D
1496790159.1,39179,17.25,73426.5,4.33,3.63,3.63,0,*7C
1496790160.3,39180,17.25,73430.5,4.33,3.67,3.63,0,*7E
1496790161.51,39181,17.31,73428.3,4.33,3.63,3.67,0,*7F
1496790162.74,39182,17.31,73414.5,4.33,3.75,3.67,0,*7B
1496790163.94,39183,17.25,73424.8,4.33,3.63,3.67,0,*7D
1496790165.15,39184,17.31,73416.8,4.33,3.67,3.63,0,*7A
1496790166.32,39185,17.31,73418.8,4.33,3.63,3.63,0,*7F
1496790167.53,39186,17.25,73414.8,4.31,3.63,3.63,0,*7E
1496790168.7,39187,17.25,73442.8,4.33,3.59,3.63,0,*74
1496790169.88,39188,17.25,73420.0,4.33,3.59,3.63,0,*7B
1496790171.13,39189,17.25,73456.0,4.31,3.53,3.53,0,*71
1496790172.35,39190,17.31,73424.3,4.33,3.49,3.53,0,*70
1496790173.6,39191,17.25,73410.8,4.31,3.37,3.37,0,*78
1496790174.83,39192,17.31,73396.3,4.33,3.37,3.37,0,*79
1496790176.09,39193,17.25,73450.0,4.31,3.37,3.49,0,*73
1496790177.32,39194,17.25,73458.0,4.33,3.49,3.49,0,*7F
1496790178.57,39195,17.25,73456.8,4.31,3.53,3.53,0,*7C
1496790179.77,39196,17.25,73476.5,4.31,3.59,3.59,0,*7F
1496790181.0,39197,17.25,73418.0,4.33,3.41,3.49,0,*74
1496790182.26,39198,17.25,73452.3,4.31,3.49,3.49,0,*71
1496790183.49,39199,17.25,73464.3,4.33,3.41,3.49,0,*7A
1496790184.73,39200,17.25,73468.0,4.33,3.41,3.49,0,*79
1496790185.99,39201,17.25,73450.3,4.31,3.41,3.49,0,*7A
1496790187.25,39202,17.25,73444.8,4.31,3.37,3.37,0,*71
1496790188.46,39203,17.25,73460.3,4.31,3.29,3.29,0,*70
1496790189.69,39204,17.25,73470.8,4.29,3.45,3.45,0,*7E
1496790190.95,39205,17.25,73462.0,4.31,3.41,3.49,0,*7E
1496790192.21,39206,17.25,73456.5,4.31,3.49,3.41,0,*7D
1496790193.44,39207,17.25,73454.0,4.29,3.45,3.45,0,*7D
1496790194.67,39208,17.25,73450.0,4.29,3.49,3.49,0,*72
1496790195.91,39209,17.25,73456.5,4.29,3.45,3.45,0,*73
1496790197.11,39210,17.25,73450.3,4.31,3.59,3.59,0,*72
1496790198.34,39211,17.25,73438.8,4.29,3.49,3.45,0,*76
1496790199.51,39212,17.25,73438.3,4.29,3.55,3.55,0,*79
1496790200.68,39213,17.25,73436.3,4.29,3.55,3.55,0,*78
1496790201.87,39214,17.25,73436.0,4.27,3.53,3.55,0,*77
1496790203.05,39215,17.25,73430.3,4.29,3.59,3.59,0,*7E
1496790204.28,39216,17.25,73430.5,4.29,3.49,3.49,0,*7D
1496790205.45,39217,17.25,73436.5,4.29,3.55,3.55,0,*7C
1496790206.62,39218,17.25,73422.0,4.29,3.55,3.59,0,*7F
1496790207.83,39219,17.31,73420.0,4.29,3.55,3.49,0,*7F
1496790209.06,39220,17.25,73412.3,4.29,3.45,3.49,0,*74
1496790210.29,39221,17.25,73416.0,4.29,3.33,3.37,0,*7D
1496790211.5,39222,17.25,73442.5,4.31,3.29,3.29,0,*73
1496790212.68,39223,17.25,73442.3,4.29,3.25,3.25,0,*7B
1496790213.86,39224,17.25,73436.8,4.29,3.25,3.25,0,*7C
1496790215.04,39225,17.25,73430.8,4.29,3.25,3.25,0,*7D
1496790216.27,39226,17.25,73432.0,4.27,3.11,3.11,0,*70
1496790217.47,39227,17.25,73448.8,4.29,2.99,3.03,0,*7D
1496790218.68,39228,17.31,73454.3,4.29,3.25,3.23,0,*76
1496790219.85,39229,17.25,73448.8,4.27,3.29,3.29,0,*7F
1496790221.05,39230,17.25,73460.5,4.27,3.33,3.29,0,*7C
1496790222.28,39231,17.25,73462.8,4.29,3.49,3.49,0,*78
1496790223.49,39232,17.25,73456.8,4.27,3.45,3.53,0,*72
1496790224.73,39233,17.25,73456.8,4.29,3.41,3.49,0,*72
1496790225.96,39234,17.25,73456.0,4.27,3.41,3.41,0,*73
1496790227.19,39235,17.25,73450.0,4.27,3.41,3.41,0,*72
1496790228.42,39236,17.25,73452.5,4.27,3.41,3.33,0,*74
1496790229.68,39237,17.25,73446.3,4.31,3.37,3.41,0,*76
1496790230.9,39238,17.25,73462.0,4.27,3.23,3.19,0,*76
1496790232.14,39239,17.25,73462.8,4.25,3.19,3.19,0,*7C
1496790233.39,39240,17.31,73454.3,4.25,3.11,3.11,0,*72
1496790234.59,39241,17.25,73450.5,4.23,3.29,3.23,0,*7F
1496790235.77,39242,17.25,73444.0,4.23,3.29,3.29,0,*76
1496790237.0,39243,17.25,73448.5,4.27,3.41,3.41,0,*73
1496790238.25,39244,17.25,73448.5,4.25,3.33,3.41,0,*73
1496790239.5,39245,17.25,73452.5,4.25,3.53,3.45,0,*70
1496790240.75,39246,17.25,73460.8,4.25,3.53,3.45,0,*73
1496790241.99,39247,17.25,73452.0,4.25,3.53,3.53,0,*75
1496790243.24,39248,17.25,73452.5,4.25,3.45,3.45,0,*7A
1496790244.44,39249,17.25,73434.8,4.27,3.23,3.29,0,*73
1496790245.66,39250,17.25,73452.8,4.25,3.29,3.23,0,*79
1496790246.91,39251,17.25,73432.3,4.25,3.41,3.45,0,*76
1496790248.17,39252,17.25,73428.5,4.25,3.33,3.41,0,*74
1496790249.41,39253,17.25,73426.0,4.25,3.33,3.33,0,*70
1496790250.66,39254,17.25,73432.0,4.25,3.23,3.19,0,*7E
1496790251.88,39255,17.25,73432.5,4.25,3.33,3.29,0,*7D
1496790253.08,39256,17.25,73440.5,4.23,3.33,3.25,0,*74
1496790254.34,39257,17.25,73440.0,4.25,3.45,3.41,0,*70
1496790255.54,39258,17.25,73424.0,4.27,3.29,3.33,0,*72
1496790256.76,39259,17.25,73430.8,4.25,3.33,3.29,0,*71
1496790257.98,39260,17.25,73422.3,4.23,3.33,3.33,0,*76
1496790259.21,39261,17.25,73430.8,4.23,3.07,3.07,0,*77
1496790260.42,39262,17.25,73448.5,4.23,3.03,2.95,0,*7A
1496790261.65,39263,17.25,73454.5,4.23,3.15,3.15,0,*75
1496790262.87,39264,17.25,73432.0,4.23,3.19,3.19,0,*72
1496790264.1,39265,17.25,73428.0,4.23,3.03,3.07,0,*77
1496790265.3,39266,17.25,73434.8,4.23,2.95,3.03,0,*7E
1496790266.47,39267,17.25,73436.3,4.23,3.25,3.29,0,*7D
1496790267.68,39268,17.25,73424.8,4.21,3.25,3.25,0,*7C
1496790268.92,39269,17.25,73432.3,4.21,3.19,3.19,0,*7D
1496790270.18,39270,17.25,73430.8,4.21,3.15,3.07,0,*76
1496790271.42,39271,17.25,73432.3,4.21,3.19,3.19,0,*74
1496790272.63,39272,17.25,73434.5,4.21,3.25,3.25,0,*77
1496790273.83,39273,17.25,73428.3,4.21,3.25,3.25,0,*76
1496790275.05,39274,17.25,73426.0,4.21,3.25,3.19,0,*7E
1496790276.28,39275,17.25,73410.0,4.19,3.15,3.23,0,*7E
1496790277.54,39276,17.25,73424.5,4.21,3.03,3.07,0,*77
1496790278.77,39277,17.25,73424.3,4.19,3.15,3.11,0,*7D
1496790279.97,39278,17.25,73428.8,4.21,3.25,3.25,0,*7D
1496790281.23,39279,17.25,73426.0,4.21,3.03,3.07,0,*78
1496790282.4,39280,17.25,73428.8,4.19,2.91,2.91,0,*71
1496790283.61,39281,17.25,73436.0,4.19,3.03,2.99,0,*72
1496790284.83,39282,17.25,73426.3,4.19,3.11,3.11,0,*73
1496790286.07,39283,17.25,73426.3,4.19,3.15,3.11,0,*76
1496790287.24,39284,17.25,73406.0,4.19,2.91,2.91,0,*75
1496790288.42,39285,17.25,73422.8,4.19,2.99,2.99,0,*74
1496790289.62,39286,17.25,73410.0,4.19,3.03,2.91,0,*7D
1496790290.85,39287,17.25,73418.8,4.17,3.03,2.99,0,*7A
1496790292.11,39288,17.25,73420.8,4.17,3.11,3.11,0,*77
1496790293.37,39289,17.25,73426.0,4.17,3.15,3.15,0,*76
1496790294.6,39290,17.25,73430.5,4.17,3.23,3.25,0,*78
1496790295.84,39291,17.25,73424.0,4.17,3.25,3.33,0,*78
1496790297.04,39292,17.25,73430.3,4.17,3.25,3.25,0,*7C
1496790298.27,39293,17.25,73438.0,4.19,3.33,3.33,0,*73
1496790299.52,39294,17.25,73434.5,4.17,3.33,3.33,0,*7A
1496790300.78,39295,17.25,73434.3,4.17,3.45,3.45,0,*7B
1496790302.04,39296,17.25,73420.0,4.17,3.45,3.45,0,*78
1496790303.25,39297,17.25,73414.3,4.17,3.25,3.25,0,*79
1496790304.47,39298,17.25,73426.3,4.17,3.33,3.25,0,*71
1496790305.73,39299,17.25,73442.0,4.17,3.33,3.33,0,*77
1496790306.95,39300,17.25,73418.8,4.17,3.33,3.25,0,*71
1496790308.22,39301,17.25,73432.8,4.17,3.15,3.15,0,*77
1496790309.48,39302,17.25,73426.8,4.17,3.37,3.45,0,*71
1496790310.73,39303,17.25,73426.5,4.17,3.45,3.37,0,*70
1496790311.98,39304,17.25,73430.8,4.17,3.33,3.33,0,*72
1496790313.23,39305,17.25,73424.3,4.17,3.33,3.23,0,*72
1496790314.49,39306,17.25,73426.3,4.17,3.11,3.11,0,*70
1496790315.75,39307,17.25,73440.3,4.17,3.15,3.15,0,*71
1496790316.99,39308,17.25,73436.8,4.17,3.25,3.33,0,*79
1496790318.2,39309,17.25,73432.8,4.17,3.25,3.25,0,*7F
1496790319.45,39310,17.25,73430.0,4.17,3.23,3.23,0,*77
1496790320.68,39311,17.25,73448.8,4.17,3.25,3.33,0,*71
1496790321.94,39312,17.25,73418.0,4.17,3.45,3.37,0,*70
1496790323.16,39313,17.25,73408.8,4.17,3.25,3.23,0,*72
1496790324.42,39314,17.25,73394.8,4.17,3.03,3.11,0,*70
1496790325.68,39315,17.25,73400.5,4.17,3.11,3.15,0,*76
1496790326.94,39316,17.25,73386.0,4.17,3.03,3.03,0,*71
1496790328.17,39317,17.25,73420.8,4.13,3.07,2.95,0,*7E
1496790329.44,39318,17.25,73412.0,4.17,3.11,3.15,0,*7B
1496790330.69,39319,17.25,73410.5,4.17,3.23,3.23,0,*7E
1496790331.93,39320,17.25,73426.5,4.13,3.19,3.23,0,*79
1496790333.16,39321,17.25,73430.3,4.13,3.33,3.29,0,*7A
1496790334.41,39322,17.25,73430.3,4.13,3.33,3.33,0,*72
1496790335.67,39323,17.25,73416.5,4.13,3.33,3.41,0,*76
1496790336.92,39324,17.25,73422.3,4.17,3.33,3.37,0,*74
1496790338.18,39325,17.25,73418.8,4.13,3.41,3.41,0,*75
1496790339.44,39326,17.25,73396.8,4.13,3.33,3.41,0,*73
1496790340.69,39327,17.25,73428.0,4.17,3.45,3.45,0,*73
1496790341.95,39328,17.25,73420.3,4.17,3.45,3.37,0,*79
1496790343.21,39329,17.25,73428.3,4.17,3.45,3.45,0,*7D
1496790344.43,39330,17.25,73426.8,4.19,3.45,3.45,0,*7B
1496790345.69,39331,17.25,73408.3,4.13,3.33,3.33,0,*70
1496790346.89,39332,17.25,73414.0,4.17,3.25,3.25,0,*77
1496790348.12,39333,17.25,73424.5,4.13,3.23,3.25,0,*74
1496790349.38,39334,17.25,73432.0,4.17,3.45,3.45,0,*71
1496790350.64,39335,17.25,73428.0,4.13,3.41,3.41,0,*74
1496790351.9,39336,17.25,73418.3,4.13,3.45,3.45,0,*77
1496790353.15,39337,17.25,73408.8,4.17,3.37,3.37,0,*72
1496790354.38,39338,17.25,73406.0,4.13,3.29,3.23,0,*73
1496790355.58,39339,17.25,73410.8,4.17,3.25,3.25,0,*7C
1496790356.84,39340,17.25,73402.8,4.17,3.23,3.23,0,*72
1496790358.1,39341,17.25,73410.8,4.17,3.15,3.23,0,*76
1496790359.35,39342,17.25,73412.5,4.13,3.11,3.11,0,*74
1496790360.58,39343,17.25,73420.5,4.13,3.07,2.99,0,*73
1496790361.8,39344,17.25,73420.8,4.13,2.99,3.19,0,*7B
1496790363.06,39345,17.25,73418.0,4.13,3.11,3.11,0,*73
1496790364.26,39346,17.25,73426.5,4.13,2.99,2.99,0,*70
1496790365.46,39347,17.25,73436.3,4.13,2.99,2.99,0,*71
1496790366.72,39348,17.25,73434.3,4.13,3.07,3.11,0,*79
1496790367.98,39349,17.25,73438.0,4.13,3.07,3.07,0,*7F
1496790369.18,39350,17.25,73442.3,4.13,2.99,2.99,0,*77
1496790370.44,39351,17.25,73452.3,4.13,3.07,3.07,0,*76
1496790371.68,39352,17.25,73452.5,4.11,3.15,3.15,0,*77
1496790372.92,39353,17.25,73450.5,4.11,3.15,3.15,0,*76
1496790374.15,39354,17.25,73448.3,4.11,3.15,3.15,0,*71
1496790375.37,39355,17.25,73444.5,4.11,3.19,3.19,0,*70
1496790376.55,39356,17.25,73438.0,4.11,3.29,3.25,0,*7F
1496790377.76,39357,17.25,73430.0,4.11,3.19,3.25,0,*7D
1496790378.96,39358,17.25,73428.0,4.11,3.19,3.25,0,*72
1496790380.22,39359,17.25,73432.3,4.13,3.41,3.41,0,*7E
1496790381.45,39360,17.25,73432.5,4.11,3.37,3.37,0,*76
1496790382.7,39361,17.25,73434.5,4.09,3.41,3.37,0,*7F
1496790383.91,39362,17.25,73430.0,4.11,3.29,3.37,0,*7B
1496790385.13,39363,17.25,73424.3,4.11,3.19,3.19,0,*75
1496790386.35,39364,17.25,73424.3,4.13,3.29,3.23,0,*7A
1496790387.61,39365,17.25,73442.0,4.13,3.41,3.33,0,*74
1496790388.87,39366,17.25,73438.3,4.09,3.41,3.37,0,*78
1496790390.13,39367,17.25,73438.0,4.13,3.41,3.41,0,*73
1496790391.31,39368,17.25,73436.0,4.11,3.29,3.29,0,*7E
1496790392.52,39369,17.25,73438.5,4.11,3.41,3.29,0,*71
1496790393.75,39370,17.25,73446.3,4.11,3.45,3.45,0,*77
1496790394.98,39371,17.25,73442.3,4.11,3.45,3.45,0,*76
1496790396.22,39372,17.25,73460.5,4.11,3.41,3.41,0,*75
1496790397.47,39373,17.25,73456.3,4.13,3.49,3.45,0,*7A
1496790398.72,39374,17.25,73454.3,4.13,3.45,3.49,0,*7D
1496790399.98,39375,17.25,73454.5,4.13,3.45,3.45,0,*70
1496790401.24,39376,17.25,73438.3,4.13,3.41,3.45,0,*77
1496790402.46,39377,17.25,73402.3,4.13,3.33,3.29,0,*79
1496790403.72,39378,17.25,73400.3,4.17,3.37,3.33,0,*7D
1496790404.95,39379,17.25,73420.0,4.13,3.23,3.29,0,*76
1496790406.16,39380,17.25,73440.3,4.13,3.29,3.29,0,*7A
1496790407.38,39381,17.25,73412.3,4.13,3.33,3.29,0,*70
1496790408.63,39382,17.25,73410.0,4.13,3.19,3.11,0,*70
1496790409.88,39383,17.25,73456.0,4.13,3.19,3.11,0,*71
1496790411.13,39384,17.25,73444.5,4.13,3.19,3.23,0,*77
1496790412.33,39385,17.25,73430.0,4.13,3.29,3.29,0,*7F
1496790413.56,39386,17.25,73444.8,4.13,3.29,3.23,0,*76
1496790414.8,39387,17.25,73456.3,4.13,3.19,3.23,0,*74
1496790416.02,39388,17.25,73452.3,4.11,3.19,3.19,0,*70
1496790417.2,39389,17.25,73448.8,4.11,3.25,3.25,0,*71
1496790418.4,39390,17.25,73456.0,4.11,3.19,3.25,0,*76
1496790419.61,39391,17.25,73456.3,4.11,3.19,3.25,0,*77
1496790420.84,39392,17.25,73458.3,4.11,3.15,3.15,0,*7B
1496790422.04,39393,17.25,73462.0,4.11,3.25,3.19,0,*75
1496790423.22,39394,17.25,73464.8,4.11,3.25,3.25,0,*7D
1496790424.47,39395,17.25,73462.3,4.09,3.19,3.19,0,*75
1496790425.67,39396,17.25,73460.8,4.11,3.19,3.25,0,*70
1496790426.91,39397,17.25,73474.5,4.11,3.07,3.07,0,*7E
1496790428.14,39398,17.25,73468.5,4.11,3.15,3.15,0,*71
1496790429.39,39399,17.25,73470.0,4.13,3.19,3.11,0,*7A
1496790430.59,39400,17.25,73462.3,4.11,3.25,3.19,0,*78
1496790431.85,39401,17.25,73448.3,4.09,3.15,3.07,0,*7C
1496790433.06,39402,17.25,73430.8,4.09,2.95,2.95,0,*7C
1496790434.32,39403,17.25,73434.3,4.09,3.15,3.03,0,*7A
1496790435.53,39404,17.25,73422.0,4.09,3.25,3.25,0,*7A
1496790436.76,39405,17.25,73406.0,4.09,3.19,3.25,0,*74
1496790437.98,39406,17.25,73402.3,4.11,3.19,3.19,0,*71
1496790439.2,39407,17.25,73412.8,4.09,3.25,3.19,0,*76
1496790440.45,39408,17.25,73420.5,4.09,3.19,3.19,0,*76
1496790441.71,39409,17.25,73422.3,4.09,3.19,3.15,0,*7B
1496790442.9,39410,17.25,73438.5,4.11,3.19,3.25,0,*79
1496790444.13,39411,17.25,73434.3,4.09,3.25,3.19,0,*71
1496790445.33,39412,17.25,73422.0,4.11,3.19,3.25,0,*7B
1496790446.54,39413,17.25,73422.0,4.09,3.25,3.25,0,*7C
1496790447.75,39414,17.25,73430.5,4.09,3.29,3.29,0,*7B
1496790448.95,39415,17.25,73430.8,4.09,3.29,3.29,0,*7A
1496790450.16,39416,17.25,73430.8,4.09,3.29,3.29,0,*79
1496790451.42,39417,17.25,73430.3,4.09,3.37,3.37,0,*78
1496790452.67,39418,17.25,73426.5,4.09,3.37,3.37,0,*77
1496790453.9,39419,17.25,73414.3,4.11,3.37,3.37,0,*7F
1496790455.16,39420,17.25,73422.3,4.09,3.37,3.41,0,*7D
1496790456.36,39421,17.25,73412.8,4.09,3.25,3.29,0,*71
1496790457.55,39422,17.25,73406.5,4.11,3.25,3.29,0,*7B
1496790458.78,39423,17.25,73398.3,4.11,3.07,3.15,0,*75
1496790460.03,39424,17.25,73408.0,4.09,3.19,3.19,0,*78
1496790461.28,39425,17.25,73400.5,4.09,3.19,3.19,0,*79
1496790462.52,39426,17.25,73408.8,4.09,3.19,3.19,0,*7A
1496790463.73,39427,17.25,73398.0,4.11,3.29,3.37,0,*7D
1496790464.96,39428,17.25,73404.3,4.09,3.29,3.37,0,*7B
1496790466.19,39429,17.25,73410.0,4.09,3.25,3.19,0,*7A
1496790467.37,39430,17.25,73426.0,4.11,3.25,3.25,0,*74
1496790468.57,39431,17.19,73402.8,4.09,3.25,3.25,0,*7C
1496790469.82,39432,17.25,73312.5,4.09,3.19,3.19,0,*7F
1496790471.07,39433,17.25,73260.3,4.09,3.19,3.07,0,*71
1496790472.31,39434,17.25,73304.5,4.09,3.03,2.95,0,*77
1496790473.57,39435,17.25,73364.8,4.09,3.07,3.07,0,*78
1496790474.82,39436,17.25,73402.5,4.09,3.37,3.37,0,*7B
1496790476.08,39437,17.25,73424.3,4.09,3.41,3.37,0,*7B
1496790477.32,39438,17.25,73432.0,4.11,3.41,3.41,0,*7C
1496790478.57,39439,17.19,73436.0,4.09,3.45,3.45,0,*74
1496790479.83,39440,17.25,73388.0,4.09,3.37,3.37,0,*7A
1496790481.08,39441,17.25,73406.5,4.09,3.37,3.37,0,*7B
1496790482.31,39442,17.25,73404.5,4.09,3.25,3.37,0,*7B
1496790483.54,39443,17.25,73386.8,4.09,3.29,3.37,0,*76
1496790484.75,39444,17.19,73344.8,4.11,3.25,3.15,0,*74
1496790486.02,39445,17.25,73378.0,4.09,3.15,3.15,0,*7F
1496790487.28,39446,17.25,73384.0,4.09,3.15,3.15,0,*7C
1496790488.53,39447,17.25,73380.8,4.09,3.19,3.15,0,*71
1496790489.74,39448,17.25,73398.5,4.09,3.25,3.25,0,*72
1496790490.95,39449,17.19,73396.3,4.09,3.25,3.29,0,*7F
1496790492.18,39450,17.19,73402.8,4.09,3.37,3.29,0,*74
1496790493.43,39451,17.19,73404.0,4.09,3.19,3.15,0,*76
1496790494.66,39452,17.25,73398.8,4.09,2.85,2.91,0,*7C
1496790495.86,39453,17.19,73398.3,4.09,2.95,2.91,0,*7C
1496790497.09,39454,17.25,73414.8,4.07,3.11,3.11,0,*71
1496790498.3,39455,17.25,73424.8,4.09,3.25,3.29,0,*72
1496790499.53,39456,17.25,73402.8,4.09,3.19,3.25,0,*72
1496790500.76,39457,17.25,73398.5,4.07,3.23,3.23,0,*72
1496790501.99,39458,17.25,73412.3,4.07,3.15,3.15,0,*7D
1496790503.26,39459,17.19,73410.0,4.05,3.15,3.15,0,*7E
1496790504.5,39460,17.25,73388.0,4.07,3.11,3.15,0,*72
1496790505.73,39461,17.25,73418.8,4.07,3.15,3.03,0,*70
1496790506.97,39462,17.25,73434.5,4.05,3.23,3.25,0,*70
1496790508.2,39463,17.19,73444.0,4.07,3.33,3.33,0,*75
1496790509.42,39464,17.25,73464.3,4.07,3.37,3.37,0,*72
1496790510.69,39465,17.25,73476.0,4.09,3.41,3.41,0,*7D
1496790511.91,39466,17.25,73412.5,4.07,3.37,3.37,0,*70
1496790513.16,39467,17.25,73418.8,4.09,3.19,3.19,0,*7F
1496790514.43,39468,17.19,73420.0,4.09,3.07,3.15,0,*73
1496790515.69,39469,17.25,73422.0,4.05,3.03,3.03,0,*7D
1496790516.87,39470,17.25,73418.8,4.07,2.91,2.91,0,*77
1496790518.07,39471,17.19,73398.3,4.07,2.89,2.91,0,*7F
1496790519.3,39472,17.19,73406.0,4.07,2.81,2.77,0,*7C
1496790520.53,39473,17.25,73402.3,4.07,2.81,2.77,0,*7D
1496790521.73,39474,17.25,73402.0,4.05,2.99,2.91,0,*79
1496790522.94,39475,17.19,73410.5,4.07,3.03,2.99,0,*70
1496790524.17,39476,17.19,73402.0,4.07,3.11,3.11,0,*71
1496790525.41,39477,17.19,73394.3,4.07,3.15,3.15,0,*70
1496790526.61,39478,17.25,73390.8,4.07,3.33,3.25,0,*78
1496790527.84,39479,17.25,73386.0,4.07,3.11,3.23,0,*7F
1496790529.1,39480,17.25,73386.0,4.05,3.03,3.03,0,*7A
1496790530.33,39481,17.25,73380.3,4.07,2.81,2.77,0,*70
1496790531.59,39482,17.19,73382.0,4.05,2.69,2.81,0,*7E
1496790532.76,39483,17.25,73376.5,4.03,2.95,2.99,0,*73
1496790533.93,39484,17.19,73372.3,4.03,2.99,2.99,0,*78
1496790535.16,39485,17.19,73376.3,4.03,3.11,3.11,0,*79